Temperature
16 16 17 17 17 17 17 17 17 18 18 18 18 18 18 18 18 18 18 18 18 18 18 18 18 18 18 18 18 18 18 18 18 18 18 18 18 18 18 18 18 17 18
16 16 17 17 17 17 17 17 17 17 18 18 18 17 18 18 18 18 18 18 18 18 18 18 18 18 18 17 17 17 18 18 18 18 18 18 18 18 18 18 18 18 18
16 16 17 17 17 17 17 17 17 17 17 17 17 17 17 18 17 17 17 17 17 17 17 17 17 17 17 17 17 17 17 18 18 17 17 17 17 17 18 18 18 18 18
16 16 16 17 17 17 17 17 17 17 17 17 17 17 17 17 17 17 17 17 17 17 17 17 17 17 17 17 17 17 17 17 17 17 17 17 17 17 17 18 18 18 18
16 16 16 17 17 17 17 17 17 17 17 17 17 17 17 17 17 17 17 17 17 17 17 17 17 17 17 17 17 17 17 17 17 17 17 17 17 17 17 17 17 17 17
16 16 16 17 17 17 17 17 17 17 17 17 17 17 17 17 17 17 17 17 17 17 17 17 17 17 17 17 17 17 17 17 17 16 16 16 17 17 17 17 17 17 17
16 16 16 17 17 17 17 17 17 17 17 17 17 17 17 17 17 17 17 17 17 17 17 17 17 17 17 17 17 17 17 17 16 16 16 16 17 17 17 17 17 17 17
16 16 16 17 17 17 17 17 17 17 17 17 17 17 17 17 16 16 17 17 17 17 17 16 17 17 17 16 17 17 17 16 16 16 16 16 16 17 17 17 17 17 17
16 16 16 16 16 17 17 17 17 17 17 17 17 17 17 17 17 16 16 16 16 16 16 16 16 16 16 16 16 16 16 16 16 16 16 16 16 16 16 16 16 16 16
16 16 16 16 16 16 16 17 17 17 17 17 17 17 17 17 16 16 16 16 16 16 16 16 16 16 16 16 16 16 16 16 16 16 16 16 16 16 16 16 16 16 16
16 16 16 16 16 16 16 16 16 17 17 17 16 17 16 16 16 16 16 16 16 16 16 16 16 16 16 16 16 16 16 16 15 15 15 15 16 16 16 16 16 16 16
16 16 16 16 16 16 16 16 16 16 16 16 16 16 16 16 16 16 16 16 16 16 16 16 16 16 16 15 15 16 15 15 15 15 15 15 16 15 15 15 16 16 16
16 16 16 16 16 16 16 16 16 16 16 16 16 16 16 16 16 16 16 16 16 16 16 16 15 15 15 15 15 15 15 15 15 15 15 15 15 15 15 15 15 15 15
16 16 16 16 16 16 16 16 16 16 16 16 16 16 16 16 16 15 15 15 15 15 15 15 15 15 15 15 15 15 15 15 15 15 15 15 15 15 15 15 15 15 15
16 16 16 16 16 16 16 16 16 16 16 16 16 15 15 15 15 15 15 15 15 15 15 15 15 15 15 15 15 15 15 15 15 14 15 15 15 15 15 15 15 15 15
16 16 16 16 16 16 16 16 16 15 15 15 15 15 15 15 15 15 15 15 15 15 15 15 15 15 14 14 14 15 15 14 14 14 14 15 15 15 15 15 15 15 15
16 16 16 16 16 16 16 16 15 15 15 15 15 15 15 15 15 15 15 15 15 15 14 14 14 14 14 14 14 14 14 14 14 14 14 14 14 15 15 15 15 14 14
16 16 16 16 16 16 16 15 15 15 15 15 15 15 15 15 15 15 14 14 14 14 14 14 14 14 14 14 14 14 14 14 14 14 14 14 14 14 14 14 14 14 14
16 16 16 16 16 16 15 15 15 15 15 15 15 15 15 14 14 14 14 14 14 14 14 14 13 13 13 13 13 13 13 14 14 14 14 14 14 14 14 14 14 14 14
16 16 16 16 16 16 15 15 15 15 14 14 14 14 14 14 14 14 14 14 14 13 13 13 13 13 13 13 13 13 13 13 13 13 13 13 13 13 13 13 13 14 14
16 16 15 15 15 15 15 15 15 14 14 14 14 14 14 14 14 14 14 14 13 13 13 13 13 13 13 13 13 13 13 13 13 13 13 13 13 13 13 13 13 13 13
15 15 15 15 15 15 15 15 15 14 14 14 14 14 14 14 14 14 13 13 13 13 13 13 12 12 12 12 12 13 13 13 13 13 13 13 13 13 13 13 13 13 13
15 15 15 15 15 15 15 15 14 14 14 14 14 14 14 14 14 13 13 13 13 13 13 12 12 12 12 12 12 12 13 14 13 13 13 12 12 12 12 13 13 13 12
15 15 15 15 15 15 15 14 14 14 14 14 14 14 14 14 13 13 13 13 13 12 12 12 12 12 12 12 12 12 12 12 12 12 12 12 12 12 12 12 12 12 12
15 15 15 15 15 15 14 14 14 14 14 14 14 13 13 13 13 13 13 13 12 12 12 12 12 12 12 12 11 11 12 12 12 12 12 12 12 12 12 12 12 12 12
15 15 15 14 15 14 14 14 14 14 14 13 13 13 13 13 13 13 13 13 12 12 12 12 12 12 11 11 11 11 11 11 12 12 12 12 12 12 12 12 12 12 12
Wind_Speed
4 5 7 7 8 8 9 9 10 10 10 10 10 10 10 10 10 10 10 9 9 9 9 9 9 9 9 8 8 8 7 7 7 7 7 7 7 7 6 5 3 5 6
4 6 7 7 8 8 9 9 10 10 10 11 11 12 11 11 10 10 10 9 9 9 9 9 9 9 9 8 8 8 8 7 7 5 5 6 8 7 7 7 7 7 6
5 6 7 8 8 8 9 10 10 10 11 11 12 12 12 12 11 10 9 9 10 9 9 9 9 9 9 8 9 9 8 7 6 3 1 5 8 9 8 8 8 9 8
6 7 8 9 8 9 9 10 10 11 11 11 12 12 13 13 12 11 10 10 10 10 10 10 10 10 9 9 9 9 9 8 5 2 4 6 7 10 9 9 9 9 10
6 7 9 8 8 9 9 10 11 11 11 11 12 12 13 12 12 11 11 11 11 11 11 11 10 10 10 10 9 10 9 8 4 5 7 7 8 9 10 10 9 9 9
7 7 9 8 8 9 9 10 11 11 11 11 11 12 12 12 11 11 11 11 11 11 11 11 11 11 10 10 10 10 9 8 5 7 7 7 8 10 9 9 9 8 9
7 7 9 9 9 9 9 10 10 11 11 11 11 12 12 12 13 11 12 11 12 12 12 11 11 10 10 10 10 10 8 7 7 7 7 8 9 10 9 9 8 8 8
7 7 8 9 8 8 9 9 10 10 10 11 11 12 12 13 13 13 13 13 13 13 12 12 11 10 10 10 10 9 8 6 7 8 8 8 10 9 8 8 8 8 7
7 7 7 7 7 8 8 9 9 10 10 11 11 12 12 12 13 13 13 13 13 12 12 11 11 11 10 10 10 9 8 7 7 7 7 8 10 9 9 8 8 8 8
6 6 6 6 6 6 7 8 9 9 10 10 10 10 10 10 11 11 12 12 12 12 11 11 10 10 10 10 9 8 5 4 7 8 8 9 11 10 9 9 9 9 8
6 5 5 5 5 6 6 7 7 8 8 7 8 8 6 7 9 9 12 12 11 11 10 10 10 9 7 8 8 5 3 5 7 7 8 11 10 10 10 10 10 10 9
5 5 4 4 5 5 5 5 5 5 6 6 6 7 6 7 7 8 10 10 10 9 9 9 7 5 4 5 5 3 4 6 6 6 9 10 9 8 8 8 9 10 8
5 5 4 4 4 4 4 4 4 4 5 5 6 7 6 6 6 6 6 6 6 6 7 6 5 6 5 5 4 5 5 5 5 6 8 9 7 7 7 7 8 8 8
4 4 4 3 4 4 4 4 3 3 4 4 5 6 5 5 5 5 5 6 5 5 5 5 5 6 5 5 5 5 5 4 5 5 7 9 8 8 8 8 8 8 7
4 4 4 3 3 3 4 3 3 4 4 4 4 5 6 4 4 4 4 5 5 5 4 4 5 6 5 5 5 5 5 5 5 5 6 8 8 7 7 8 8 8 8
3 3 3 3 3 3 3 3 3 3 3 3 4 4 5 4 4 4 4 4 5 4 4 4 5 4 4 4 4 5 4 4 4 4 4 6 7 7 7 7 8 8 8
3 3 3 2 3 3 3 3 3 2 3 3 3 3 4 4 4 4 3 4 4 4 4 4 4 3 3 3 4 4 4 4 4 4 4 3 4 6 6 6 6 7 7
3 3 4 2 3 3 3 2 3 3 3 3 3 3 3 3 4 4 3 3 4 3 3 3 3 3 3 3 3 3 3 3 3 3 3 3 3 3 5 6 6 6 6
3 3 4 3 3 3 3 3 3 3 3 3 2 2 3 3 3 3 3 3 3 2 2 3 3 3 3 3 3 2 3 2 2 2 3 3 3 3 3 4 4 6 6
3 3 4 4 3 3 2 2 2 3 2 2 2 2 2 2 3 2 2 2 2 2 2 2 3 3 2 3 3 3 2 2 2 2 2 3 3 3 3 2 2 4 5
4 4 4 4 4 3 2 2 2 1 1 2 2 3 2 2 2 2 1 2 2 1 2 2 2 2 2 2 2 2 1 1 1 1 1 2 3 3 3 2 2 2 2
5 4 4 4 4 3 2 2 1 1 1 1 1 2 2 2 2 1 1 1 1 1 1 2 1 1 2 2 3 3 1 0 1 1 1 1 2 2 2 2 2 2 2
5 5 4 5 4 3 3 2 2 2 1 1 0 0 1 2 2 2 1 1 1 1 1 1 1 1 2 2 2 2 2 2 2 0 1 1 2 2 2 2 2 2 1
6 5 5 5 4 4 4 3 3 2 1 1 1 1 1 1 1 2 2 2 1 1 1 1 1 2 2 2 2 2 3 3 3 2 1 1 2 2 2 2 2 2 1
6 5 5 5 4 4 4 4 3 2 1 1 1 1 1 1 1 1 1 2 2 1 2 2 2 2 2 3 3 2 3 3 4 4 3 3 2 2 2 3 2 2 1
5 5 5 5 4 4 4 4 4 3 2 1 1 1 1 1 1 1 2 2 2 2 2 2 2 3 3 3 3 3 3 3 4 3 4 4 3 3 2 2 2 2 2
Wind_Direction
52 54 60 50 59 60 62 64 67 67 67 66 64 65 69 71 69 74 78 78 78 79 82 81 78 76 76 74 71 67 65 63 63 64 71 72 68 67 62 57 49 86 88
67 66 70 63 64 61 63 66 70 68 66 64 64 66 65 66 69 71 72 73 75 77 78 78 74 72 70 67 66 64 62 58 57 60 69 85 74 64 60 49 34 54 64
72 72 78 68 67 66 65 68 70 69 68 67 65 65 64 68 72 73 74 73 71 73 77 75 75 69 66 63 60 58 54 47 46 47 57 76 77 68 61 56 53 53 60
76 71 69 68 65 67 66 69 68 68 69 68 66 65 65 66 69 72 73 74 72 74 74 72 70 70 65 62 60 55 45 40 36 5 61 59 66 67 60 59 56 56 62
82 77 75 66 67 67 65 66 69 70 71 70 69 67 65 64 66 69 70 72 73 74 73 69 67 69 65 63 60 55 46 44 45 57 59 57 61 66 59 58 57 60 68
88 85 82 72 71 69 66 66 69 69 70 71 71 70 67 64 66 68 70 70 73 73 70 67 64 65 67 65 62 57 48 36 46 59 57 57 60 65 59 57 59 60 68
89 87 88 76 72 72 69 66 68 69 67 69 70 70 68 65 63 68 68 68 69 72 69 66 62 62 65 65 64 60 52 26 48 59 58 56 57 60 57 54 58 62 64
90 88 91 88 77 73 71 67 66 68 68 68 69 70 70 67 65 63 64 65 66 67 67 66 63 62 64 64 66 62 49 15 57 56 58 58 54 56 54 51 56 61 65
90 87 87 90 92 87 76 69 69 69 67 68 69 70 71 71 69 65 64 64 66 66 65 64 61 58 61 63 66 63 55 34 46 51 53 54 51 49 50 48 56 57 58
90 83 80 81 82 88 88 81 78 74 70 71 71 71 75 80 79 73 70 66 66 65 63 62 61 60 61 64 63 61 53 44 53 51 50 54 51 47 48 49 51 52 52
91 87 83 74 73 76 81 88 88 86 79 83 83 81 80 75 72 73 65 65 64 61 61 60 60 62 64 75 68 51 36 53 55 52 51 47 43 45 46 46 49 50 48
96 92 90 83 80 78 77 83 75 76 76 68 70 69 64 63 63 65 76 69 66 63 66 63 60 65 52 64 72 62 53 51 51 57 55 45 39 42 45 46 47 47 47
100 89 81 79 79 79 75 72 71 69 69 65 61 63 62 63 66 62 65 71 67 61 54 58 49 44 45 50 44 48 46 44 51 54 54 49 46 48 46 46 47 45 46
105 97 86 82 82 79 79 78 81 78 73 69 64 59 57 56 54 53 52 51 49 44 40 40 43 45 45 51 49 46 47 47 48 57 57 48 48 49 46 44 42 43 44
111 103 94 87 88 84 77 76 84 79 74 78 68 61 58 54 52 51 53 51 46 41 39 40 41 41 38 41 42 39 41 46 48 51 66 60 48 42 43 44 44 43 42
127 117 106 101 95 94 93 88 80 81 86 81 76 68 61 59 56 49 49 47 44 39 37 39 40 37 36 39 35 36 38 44 48 48 56 68 64 48 41 43 45 42 41
142 135 116 112 108 104 93 82 78 81 87 81 76 64 58 54 53 50 44 46 43 41 41 42 40 39 41 39 33 31 36 35 35 39 43 43 59 68 53 42 42 40 39
139 134 122 120 121 111 99 90 91 91 87 80 72 57 52 50 49 50 45 43 40 39 38 35 28 29 31 25 20 20 24 27 25 22 27 36 35 44 63 53 42 37 37
152 145 133 126 124 116 105 95 88 92 85 79 71 58 49 46 41 51 43 34 34 34 32 27 24 14 17 11 4 4 7 6 6 12 20 25 37 38 52 71 63 45 36
157 153 139 129 128 121 117 112 98 92 85 76 63 47 40 38 39 46 40 28 24 20 22 23 22 16 9 356 351 351 354 354 357 15 16 30 30 34 37 37 58 71 53
163 163 151 142 142 139 137 142 127 122 107 88 58 36 28 19 23 43 21 19 6 358 2 8 14 11 13 1 344 349 359 1 13 27 19 19 34 30 25 21 28 37 65
177 177 170 161 156 153 157 153 145 138 132 94 67 49 26 18 11 21 7 359 360 345 358 11 18 352 3 350 336 331 329 222 31 10 351 356 360 8 1 7 17 14 15
190 191 185 175 165 164 161 140 131 123 107 99 99 78 6 6 5 353 340 341 337 319 342 334 326 330 325 324 332 330 320 335 333 283 350 341 354 339 329 330 338 345 354
197 195 195 185 174 166 165 160 160 167 186 259 270 241 281 317 337 335 332 320 313 315 305 294 299 295 289 299 305 306 307 318 297 300 286 325 336 330 319 307 311 314 324
193 193 197 191 181 172 179 178 194 199 215 230 256 280 270 278 291 295 303 298 299 298 291 292 286 286 275 284 291 289 294 287 277 285 292 303 305 319 318 307 306 300 285
183 184 188 188 187 182 190 196 205 203 210 216 250 272 275 271 271 268 271 279 286 291 288 283 272 274 280 277 277 279 280 283 290 285 288 294 305 316 310 303 294 292 274
Height
1531 1530 1528 1528 1527 1527 1527 1526 1526 1525 1525 1524 1523 1523 1522 1521 1521 1521 1521 1521 1521 1521 1522 1522 1522 1522 1522 1522 1522 1521 1521 1521 1520 1520 1519 1518 1518 1517 1516 1515 1515 1514 1512
1532 1531 1530 1529 1529 1529 1528 1528 1527 1527 1526 1526 1525 1524 1523 1522 1521 1522 1522 1522 1522 1522 1523 1523 1523 1523 1523 1523 1523 1522 1521 1521 1520 1520 1520 1519 1519 1518 1517 1516 1515 1512 1509
1533 1532 1531 1531 1531 1530 1530 1529 1529 1528 1528 1527 1526 1525 1524 1523 1522 1523 1523 1523 1523 1523 1524 1524 1524 1524 1524 1524 1523 1523 1521 1520 1519 1519 1520 1521 1520 1519 1518 1517 1515 1512 1508
1534 1534 1533 1532 1532 1532 1531 1531 1531 1530 1530 1529 1528 1527 1526 1525 1524 1524 1524 1524 1524 1524 1525 1525 1525 1525 1525 1524 1523 1523 1521 1517 1516 1518 1521 1521 1521 1520 1519 1518 1517 1515 1512
1535 1535 1534 1534 1534 1533 1533 1533 1532 1532 1531 1531 1530 1529 1528 1527 1527 1526 1526 1526 1526 1526 1526 1526 1526 1526 1525 1525 1524 1524 1521 1517 1517 1520 1521 1522 1522 1521 1520 1520 1518 1517 1516
1537 1537 1536 1535 1535 1535 1535 1535 1534 1534 1533 1532 1532 1531 1530 1529 1528 1528 1528 1528 1527 1527 1527 1527 1527 1527 1527 1526 1526 1525 1523 1521 1522 1522 1523 1524 1523 1522 1522 1521 1520 1519 1519
1538 1538 1538 1537 1537 1537 1537 1536 1536 1535 1535 1534 1534 1533 1532 1531 1530 1530 1530 1529 1529 1529 1529 1529 1529 1528 1528 1527 1527 1526 1526 1524 1525 1525 1526 1525 1524 1524 1523 1522 1522 1521 1520
1540 1540 1540 1539 1539 1539 1538 1538 1537 1537 1536 1536 1535 1535 1534 1533 1532 1532 1532 1531 1531 1531 1530 1530 1530 1530 1529 1529 1528 1528 1528 1528 1528 1528 1528 1527 1526 1525 1524 1523 1523 1522 1522
1541 1541 1541 1541 1541 1540 1540 1539 1539 1538 1538 1538 1537 1536 1536 1535 1535 1534 1534 1533 1533 1532 1532 1532 1532 1531 1531 1530 1530 1530 1529 1529 1530 1530 1529 1528 1527 1526 1526 1525 1524 1523 1523
1543 1543 1543 1543 1543 1542 1542 1541 1540 1540 1540 1539 1539 1538 1538 1537 1537 1536 1536 1535 1535 1534 1534 1534 1533 1533 1532 1532 1532 1531 1531 1531 1531 1531 1530 1529 1528 1527 1526 1526 1525 1524 1524
1544 1544 1544 1544 1544 1544 1544 1542 1542 1542 1541 1541 1540 1540 1540 1540 1539 1539 1538 1537 1536 1536 1535 1535 1534 1534 1533 1533 1533 1533 1533 1533 1533 1532 1531 1530 1529 1528 1527 1527 1526 1525 1524
1545 1545 1545 1545 1545 1545 1544 1544 1544 1544 1543 1543 1542 1542 1541 1541 1540 1540 1539 1538 1538 1537 1537 1536 1535 1535 1535 1535 1534 1534 1534 1534 1534 1533 1532 1531 1530 1529 1528 1527 1526 1526 1525
1546 1545 1546 1546 1546 1546 1545 1545 1545 1544 1544 1544 1543 1543 1542 1542 1542 1541 1541 1540 1539 1539 1538 1537 1537 1537 1537 1536 1536 1536 1535 1535 1534 1534 1532 1531 1530 1529 1528 1528 1527 1526 1525
1546 1546 1546 1546 1546 1547 1546 1546 1546 1545 1545 1545 1544 1544 1544 1543 1543 1543 1542 1541 1541 1540 1539 1539 1538 1538 1537 1537 1537 1536 1536 1535 1535 1534 1533 1532 1531 1530 1529 1528 1527 1526 1526
1545 1546 1546 1546 1547 1547 1547 1546 1546 1546 1546 1546 1545 1545 1545 1544 1544 1544 1543 1542 1542 1541 1540 1539 1539 1538 1538 1538 1537 1536 1536 1535 1535 1534 1533 1532 1531 1530 1529 1528 1527 1527 1526
1545 1546 1546 1546 1547 1547 1547 1547 1547 1547 1546 1547 1546 1546 1546 1546 1545 1545 1544 1543 1542 1542 1541 1540 1539 1538 1538 1538 1537 1536 1536 1535 1535 1534 1533 1532 1531 1530 1529 1529 1528 1527 1526
1545 1546 1546 1546 1547 1547 1547 1547 1547 1547 1547 1547 1547 1547 1547 1547 1546 1546 1545 1544 1543 1542 1542 1541 1540 1539 1538 1537 1537 1536 1535 1535 1534 1534 1533 1532 1532 1530 1530 1529 1528 1527 1526
1545 1546 1546 1546 1546 1547 1547 1547 1548 1547 1548 1548 1548 1548 1548 1547 1547 1546 1545 1545 1544 1543 1542 1541 1540 1539 1538 1538 1537 1536 1535 1534 1534 1533 1533 1532 1531 1531 1530 1529 1528 1527 1526
1545 1545 1546 1546 1546 1547 1547 1547 1547 1548 1548 1548 1548 1548 1548 1548 1547 1547 1546 1545 1544 1543 1542 1541 1540 1539 1538 1537 1537 1536 1535 1534 1533 1533 1532 1532 1531 1530 1530 1528 1528 1527 1526
1544 1545 1546 1545 1546 1546 1546 1547 1547 1548 1548 1548 1548 1548 1548 1547 1547 1546 1546 1545 1544 1543 1542 1541 1540 1539 1538 1537 1536 1535 1534 1533 1533 1532 1532 1531 1531 1530 1529 1528 1528 1527 1526
1543 1544 1545 1545 1545 1545 1546 1547 1547 1548 1548 1548 1548 1548 1547 1547 1547 1546 1545 1545 1544 1543 1542 1541 1540 1539 1538 1537 1536 1535 1534 1534 1533 1532 1531 1531 1530 1529 1529 1528 1528 1527 1526
1541 1542 1544 1544 1545 1545 1546 1547 1547 1547 1547 1547 1547 1547 1547 1547 1546 1546 1545 1544 1543 1542 1541 1541 1539 1539 1538 1537 1537 1536 1535 1535 1533 1532 1531 1530 1530 1529 1529 1528 1527 1527 1526
1540 1541 1542 1543 1544 1544 1545 1546 1546 1546 1547 1547 1547 1546 1546 1546 1545 1545 1544 1544 1543 1542 1541 1540 1539 1538 1538 1537 1537 1537 1536 1534 1533 1532 1530 1530 1529 1528 1528 1527 1527 1526 1526
1538 1540 1541 1542 1543 1543 1544 1545 1545 1545 1545 1546 1546 1546 1545 1545 1545 1544 1543 1543 1542 1541 1540 1540 1539 1538 1537 1537 1536 1535 1536 1534 1533 1531 1531 1529 1528 1527 1527 1526 1525 1525 1525
1537 1538 1539 1541 1542 1542 1543 1543 1544 1544 1545 1545 1545 1545 1544 1544 1543 1543 1542 1541 1541 1540 1540 1539 1538 1537 1536 1536 1535 1534 1533 1533 1532 1531 1529 1529 1527 1526 1525 1525 1524 1524 1523
1534 1535 1537 1538 1539 1540 1541 1542 1542 1543 1543 1543 1543 1543 1543 1542 1542 1541 1540 1540 1539 1539 1538 1537 1536 1536 1535 1534 1533 1533 1532 1532 1531 1530 1528 1527 1526 1525 1524 1523 1523 1522 1522